Погода Охотский Перевоз

Погода Охотский Перевоз : погода сейчас, прогноз погоды и архив. Всё, что Вы хотите узнать о погоде Охотский Перевоз!

Поиск расширенной информации на нашем сайте:

Другие новости

Новости СМИ2

Главная страница сайта

Новости сайта

02.10.2013

Напоминаем, что на нашем новом сайте вы можете получить высокодетализированные прогнозы погоды по пунктам России, СНГ и мира (включающие важные для авиации метеовеличины, такие как направление и скорость ветра, видимость, явления погоды, количество и форма облачности, нижняя и верхняя граница облачности), а также ознакомиться с разнообразными материалами по авиационной метеорологии и подборкой полезных ссылок на эту тему.

Сайт Метеоцентр.Азия посвящён разработке технологий оптимизации авиаметеорологического обслуживания, включая проектирование и перспективное создание нескольких автоматизированных авиаметеорологических систем:
- система выпуска высокодетальных прогностических карт явлений погоды для нижнего воздушного пространства по России и ближнему зарубежью;
- система верификации прогнозов TAF (выпускаемых синоптиками официальных АМСГ РФ и ближнего зарубежья) и AUTOTAF (выпускаемых сайтом Метеоцентр.Азия) - выявление ошибок, онлайн-сопоставление с фактической погодой METAR, автоматическое внесение коррективов в прогнозы при резком отклонении фактической погоды от прогноза, подсчёт оправдываемости прогнозов по элементам и в целом;
- система обработки, анализа и отображения авиаметеорологической информации для применения провайдерами метеорологической информации.

Рекомендуем: Парк отдыха веслево Платная рыбалка.

Погода Охотский Перевоз - сегодня

Время (UTC), дата Ветер
(°,м/с) 
Видим.   Явления Облачность Т
(°С)
Тd
(°С)
f(%) Тe
(°С)
Pmin
(гПа)
dP
(гПа)
Po
(мм)
O2
(г/м3)
Тmin Tmax R s Состояние
почвы
06 26.05.17 010 (С) 20000 м    6/5 600 м верхняя 
[Cu med, cong|Ci fib]
+14.8 -5 25 +15  1002.6  -0.4  740  283           
09 26.05.17 130 (ЮВ) 20000 м    8/5 600 м верхняя 
[Cu med, cong|Cs]
+13.9 -3.3 30 +14  1002.1  -0.5  739  284    +15.7       
12 26.05.17 140 (ЮВ) 20000 м    8/8 600 м 
[Sc diur, vesp]
+12.1 -1.1 40 +13  1002.2  739  285           
15 26.05.17 150 (ЮВ) 10 км    8/8 600 м 
[Sc]
+10.7 -2.7 39 +11  1001.7  -0.6  739  287           
18 26.05.17 220 (ЮЗ) 10 км    9/9 600 м 
[Sc]
+10.2 -3.5 38 +11  1001.2  -0.5  738  287           
21 26.05.17 240 (ЮЗ) 20000 м    9/9 600 м 
[St]
+9.1 -1.6 47 +10  1000.4  -0.9  738  288  +9.1        влажная 
00 27.05.17 260 (З) 10 км  слаб. дождь  9/9 600 м 
[Sc]
+6.9 +6 94 +8  1001.7  1.1  738  289           
03 27.05.17 330 (СЗ) 20000 м  {дождь}  8/8 600 м кучево-дожд. 
[Cb calv]
+12.6 +4.5 58 +12  1002.5  1.2  739  284           
06 27.05.17 030 (СВ) 20000 м  {дождь}  9/9 600 м 
[Cu Sc]
+15 -0.1 36 +16  1002.6  0.2  740  282           
12 27.05.17 350 (С) 20000 м    8/8 600 м 
[Sc diur, vesp]
+13 -2.5 34 +14  1004.5  1.4  741  285           
15 27.05.17 010 (С) 10 км    6/5 1000 м верхняя 
[Sc diur, vesp|Ci fib]
+8.2 +3 70 +8  1005.6  0.9  741  290           
18 27.05.17 010 (С) 10 км    1/0 верхняя 
[Ci fib]
+1.5 +0.4 92 +2  1006.9  0.9  742  297           
21 27.05.17 тихо ()   20000 м    1/0 верхняя 
[Ci fib]
+3.9 +0.8 80 +4  1006.8  742  295  +0.1        влажная 
00 28.05.17 010 (С) 20000 м    3/1 600 м верхняя 
[Cu med, cong|Ci fib]
+10.5 +2.9 59 +11  1005.9  -0.5  742  287           
06 28.05.17 350 (С) 20000 м    8/0 верхняя 
[Cs]
+15.9 -4 25 +16  1003  -1.9  740  282           
12 28.05.17 030 (СВ) 20000 м    10/0 средняя 
[As trans]
+13.2 +0.3 41 +13  1001  -0.2  738  284           
15 28.05.17 020 (С) 10 км    9/0 средняя 
[As trans]
+11.6 +0.2 45 +11  1000.4  -0.6  738  285           
18 28.05.17 030 (СВ) 10 км    9/0 средняя, верхняя 
[As trans|Cs]
+9.3 +0.1 53 +9  1000.2  -0.4  737  287           
21 28.05.17 030 (СВ) 20000 м    9/0 средняя 
[Ac As]
+8 +4.3 77 +9  1000.5  0.3  738  288  +7.3        сухая 
00 29.05.17 тихо ()   10 км  слаб. дождь  10/6 600 м средняя 
[Frnb|As op]
+11.5 +9.3 86 +12  1001.2  738  284           
03 29.05.17 160 (Ю) 10 км  слаб. дождь  10/0 средняя 
[As op]
+11.2 +8.6 84 +11  1002.3  1.1  739  285           
06 29.05.17 130 (ЮВ) 20000 м  слаб. дождь  10/0 средняя 
[As op]
+10.9 +8.7 86 +11  1002.8  0.5             
09 29.05.17 080 (В) 20000 м  слаб. дождь  9/0 средняя 
[Ac As]
+12.6 +7 69 +12  1003.3  0.5  740  284    +13.4  0.9     
12 29.05.17 020 (С) 20000 м  {дождь}  9/0 средняя 
[Ac As]
+11.9 +7.1 72 +13  1004  0.7  740  285           
15 29.05.17 200 (Ю) 10 км    9/0 средняя 
[As op]
+12.9 +2.7 50 +13  1004.9  0.8  741  285           
Время (UTC), дата Ветер
(°,м/с) 
Видим.   Явления Облачность Т
(°С)
Тd
(°С)
f(%) Тe
(°С)
Pmin
(гПа)
dP
(гПа)
Po
(мм)
O2
(г/м3)
Тmin Tmax R s Состояние
почвы

Для получения пояснительной информации подведите курсор к названию столбца.

ПОГОДА Охотский Перевоз - архив

Всё, что Вы хотите узнать о погоде Охотский Перевоз - удобно и подробно!

Выберите нужную дату (начиная с 1 января 2015* года) и нажмите кнопку "Найти".
Будут отображены архивные сводки погоды по пункту Охотский Перевоз, начиная с указанной даты.


Отображать данные в формате CSV (для использования в таблицах Excel)


Внимание! Наш архив погоды предназначен исключительно для личного некоммерческого использования в познавательных целях. Если Вам необходимы официальные справки о состоянии погоды (для производственных, юридических, коммерческих и т.п. целей), обращайтесь в органы Росгидромета.

*Примечание: данная дата относится к архиву по метеостанциям СССР (Россия, СНГ, Балтия).
Архив по метеостанциям Зарубежной Европы и Азии (кроме Китая) хранится 10 дней, по другим регионам земного шара (Китай, Африка, Америка, Австралия, Океания) - 1 день.

Охотский Перевоз - район местоположения метеостанции


Название, широта, долгота, высота метеостанции:
Охотский Перевоз 61.9°ш. 135.5°д. 140 м над ур. моря [Российская Федерация]

Дополнительная информация

В oтличие oт бoльшинства пoгoдных сайтoв мы публикуем пoдрoбную метеoинфoрмацию в детальнoм прoфессиoнальнoм фoрмате.

Характеристики температуры и влажнoсти вoздуха измеряются на высoте 2 м в тени вдали oт зданий и деревьев.
Скoрoсть ветра измеряется на высoте 10 м (на урoвне рoста челoвека скoрoсть ветра ниже в 1.5-2 раза). Если метеoстанция нахoдится в гoрoде или в лесу, тo скoрoсть ветра занижена на 2-4 м/с пo сравнению с oткрытым местoм. Скoрoсть ветра над акватoриями крупных рек и oзёр, а также на вершинах хoлмoв на 2-5 м/с выше, чем в oбычных услoвиях.
Атмoсфернoе давление в разных тoчках местнoсти мoжет значительнo oтличаться oт давления на метеoстанции, в зависимoсти oт услoвий рельефа (при пoдъёме на 10 м давление пoнижается примернo на 1 мм рт.ст.).